Regional Weather Roundup
Issued by NWS

Home | Current Version | Previous Version | Text Only | Print | Product List | Glossary On
Versions: 1 2 3 4 5 6 7 8 9 10 11 12 13 14 15 16 17 18 19 20 21 22 23 24 25 26 27 28 29 30 31 32 33 34 35 36 37 38 39 40 41 42 43 44 45 46 47 48 49 50
623
ASUS43 KDMX 191506
RWRIA

WEATHER ROUNDUP FOR IOWA
NATIONAL WEATHER SERVICE DES MOINES IA
1000 AM CDT THU OCT 19 2017

NOTE: "FAIR" INDICATES FEW OR NO CLOUDS BELOW 12,000 FEET WITH NO
SIGNIFICANT WEATHER AND/OR OBSTRUCTIONS TO VISIBILITY.

* - THESE STATIONS ARE NOT NWS STATIONS...THUS NOT UNDER NWS
QUALITY CONTROL.  THEY ALSO DO NOT REPORT WEATHER SUCH
AS PRECIPITATION OR FOG.

IAZ001>003-012>014-020>022-031>034-043>046-191600-
   NORTHWEST IOWA

CITY           SKY/WX    TMP DP  RH WIND       PRES   REMARKS
CARROLL *      SUNNY     68  54  60 SE14      30.11S HAZE
CHEROKEE *     SUNNY     54  39  57 S9        30.09S
DENISON *      SUNNY     59  34  38 SE14      30.11S
LE MARS *      SUNNY     57  36  44 S8G16     30.06S
ORANGE CITY *  SUNNY     57  36  44 SE8       30.07R
SHELDON *      SUNNY     55  36  47 S8        30.06S
SIOUX CITY     SUNNY     53  42  66 SE9       30.07R
SPENCER        SUNNY     52  39  61 SE7       30.10R
STORM LAKE *   SUNNY     55  32  41 S15G24    30.10R
$$

IAZ055>058-069>071-079>083-090>094-191600-
   SOUTHWEST IOWA

CITY           SKY/WX    TMP DP  RH WIND       PRES   REMARKS
ATLANTIC *     SUNNY     59  43  55 E9G16     30.10S
AUDUBON *      SUNNY     59  36  41 SE8       30.12S
CLARINDA *     SUNNY     57  54  88 SE3       30.12F
COUNCIL BLFS * SUNNY     57  50  77 SE9       30.09R
CRESTON *      SUNNY     59  50  72 E12       30.13S
HARLAN  *      SUNNY     59  41  51 CALM      30.14S
LAMONI         SUNNY     57  52  83 CALM      30.13R
RED OAK *      SUNNY     59  50  72 SE7       30.10S
SHENANDOAH *   SUNNY     59  52  77 SE6       30.10S
$$

IAZ047>049-059>061-072>074-084-191600-
   CENTRAL IOWA

CITY           SKY/WX    TMP DP  RH WIND       PRES   REMARKS
AMES           SUNNY     54  42  64 SE9       30.13R
ANKENY *       SUNNY     57  36  44 SE12G18   30.15R
BOONE *        SUNNY     55  37  50 SE14G20   30.12S
CHARITON *     SUNNY     59  41  51 SE10      30.13S
DES MOINES     PTSUNNY   59  34  39 SE10      30.13R
KNOXVILLE *    SUNNY     59  37  44 SE13      30.13R
MARSHALLTOWN   SUNNY     56  40  55 E10       30.14R
NEWTON *       SUNNY     57  37  47 E12       30.14S
PELLA *        SUNNY     59  37  44 SE9       30.15S
PERRY *          N/A     57  40  53 SE8       30.13S
$$

IAZ004>006-015-016-023>025-035-036-191600-
   NORTH CENTRAL IOWA

CITY           SKY/WX    TMP DP  RH WIND       PRES   REMARKS
ALGONA *       CLOUDY    54  34  47 SE8       30.11S
CLARION *      CLOUDY    57  32  38 SE14G21   30.12R
ESTHERVILLE    CLOUDY    50  35  56 S12       30.09S
FORT DODGE *   SUNNY     54  36  50 SE7       30.12S
MASON CITY     CLOUDY    53  37  54 S12       30.14S
FOREST CITY *    N/A     52  37  58 S13       30.12F
WEBSTER CITY * SUNNY     54  37  54 SE10      30.11R
IOWA FALLS *     N/A     56  39  53 SE7       30.15S
$$

IAZ007>011-017>019-026>030-037>042-050>054-066-191600-
   NORTHEAST IOWA

CITY           SKY/WX    TMP DP  RH WIND       PRES   REMARKS
CEDAR RAPIDS   SUNNY     58  35  42 E13       30.15R
CHARLES CITY * CLOUDY    54  34  47 S9        30.15S
CLINTON *      SUNNY     60  39  45 E10       30.19R
DECORAH *      SUNNY     57  32  38 S7        30.14R
DUBUQUE        SUNNY     58  30  34 SE7       30.17R
MONTICELLO *   SUNNY     59  43  55 CALM      30.16R
OELWEIN *      SUNNY     57  34  41 E7        30.16R
WATERLOO       SUNNY     52  40  63 SE6       30.15R
$$

IAZ064-065-067-068-078-191600-
   EAST CENTRAL IOWA

CITY           SKY/WX    TMP DP  RH WIND       PRES   REMARKS
DAVENPORT      SUNNY     60  41  49 E12       30.19R
IOWA CITY      SUNNY     61  37  41 E9        30.17R
MUSCATINE *    SUNNY     59  48  67 CALM      30.17R
QUAD CITIES    SUNNY     60  45  57 E13       30.17R
$$

IAZ062-063-075>077-085>089-095>099-191600-
   SOUTHEAST IOWA

CITY           SKY/WX    TMP DP  RH WIND       PRES   REMARKS
BURLINGTON     SUNNY     60  51  72 E3        30.16R
FAIRFIELD *    SUNNY     61  43  51 E12       30.15R
FORT MADISON * SUNNY     61  52  72 SE3       30.17R
KEOKUK *       SUNNY     59  50  72 CALM      30.16R
OSKALOOSA *      N/A     63  35  35 E14       30.15R
OTTUMWA        SUNNY     59  42  53 E13       30.14S
WASHINGTON *   SUNNY     61  43  51 E12       30.17R
$$

ABBREVIATIONS USED IN REMARKS
   TC - TEMPERATURES IN CELSIUS
  WCI - WIND CHILL INDEX
   HX - HEAT INDEX
  VSB - VISIBILITY
$$





USA.gov is the U.S. government's official web portal to all federal, state and local government web resources and services.